This is the latest recevied weather packets stored in our database for station/object LU3HGB-WX. If no packets are shown the sender has not sent any weather packets the latest 10 day(s).
| Time | Temp. | Humidity | Pressure | Rain* | Wind** | Luminosity | Snow |
|---|---|---|---|---|---|---|---|
| 1778000560 | 24.44° C | 47% | 1012 hPa | 0 mm | - | 691 W/m² | - |
| 1777999961 | 23.89° C | 49% | 1012 hPa | 0 mm | - | 698 W/m² | - |
| 1777999660 | 23.89° C | 49% | 1012 hPa | 0 mm | - | 700 W/m² | - |
| 1777999361 | 23.33° C | 50% | 1012 hPa | 0 mm | - | 704 W/m² | - |
| 1777999060 | 23.33° C | 50% | 1012 hPa | 0 mm | - | 706 W/m² | - |
| 1777998760 | 23.33° C | 49% | 1012 hPa | 0 mm | - | 708 W/m² | - |
| 1777998459 | 23.33° C | 51% | 1012 hPa | 0 mm | - | 708 W/m² | - |
| 1777998160 | 23.33° C | 51% | 1012 hPa | 0 mm | - | 709 W/m² | - |
| 1777997860 | 22.78° C | 51% | 1012 hPa | 0 mm | - | 707 W/m² | - |
| 1777997560 | 22.78° C | 51% | 1013 hPa | 0 mm | - | 707 W/m² | - |
| 1777997260 | 22.78° C | 54% | 1013 hPa | 0 mm | - | 706 W/m² | - |
| 1777996959 | 22.78° C | 52% | 1013 hPa | 0 mm | - | 704 W/m² | - |
| 1777996659 | 22.78° C | 52% | 1013 hPa | 0 mm | - | 701 W/m² | - |
| 1777996360 | 22.22° C | 54% | 1013 hPa | 0 mm | - | 699 W/m² | - |
| 1777996061 | 21.67° C | 53% | 1013 hPa | 0 mm | - | 695 W/m² | - |
| 1777995759 | 21.67° C | 55% | 1013 hPa | 0 mm | - | 693 W/m² | - |
| 1777995459 | 21.11° C | 56% | 1013 hPa | 0 mm | - | 688 W/m² | - |
| 1777995159 | 21.11° C | 55% | 1013 hPa | 0 mm | - | 681 W/m² | - |
| 1777994860 | 21.11° C | 58% | 1013 hPa | 0 mm | - | 677 W/m² | - |
| 1777994560 | 20.56° C | 59% | 1013 hPa | 0 mm | - | 669 W/m² | - |
| 1777994259 | 20.56° C | 61% | 1013 hPa | 0 mm | - | 665 W/m² | - |
| 1777993959 | 20.56° C | 62% | 1013 hPa | 0 mm | - | 655 W/m² | - |
| 1777993662 | 20.56° C | 60% | 1013 hPa | 0 mm | - | 644 W/m² | - |
| 1777993361 | 20° C | 60% | 1013 hPa | 0 mm | - | 639 W/m² | - |
| 1777993059 | 20° C | 60% | 1013 hPa | 0 mm | - | 632 W/m² | - |
* Rain latest hour (hover to see other rain measurements)
** Current wind speed in m/s (hover to see current wind gust speed)